Location: Gro�wechsungen
(51.4926°N, 10.6901°E)
Time: 08:05:32
(UTC+00:00)

SPOT 3 Rocket - Pass Details

Date: 26 January 2021
Orbit: 780 x 794 km, 98.7° (Epoch: 24 February)

Event Time Altitude Azimuth Distance (km) Brightness Sun altitude
Exits shadow 18:46:08 18° 9° (N) 1,870 5.4 -26.2°
Drops below altitude 10° 18:47:34 10° 360° (N) 2,350 6.0 -26.4°
Sets 18:50:05 0° 351° (N) 3,285 6.9 -26.8°
